ONEWEB-0057, 45160

Orbit data source: Space-Track

ONEWEB-0057, 45160 is a payload satellite owned by One Web (UK) in LEO that was launched on Thu, 06 Feb 2020 UTC via a SOYUZ-2-1B launch vehicle from the Tyuratam Missile And Space Complex (TTMTR). Payload-class satellites include a variety of spacecraft equipped with specific instruments for various scientific and technological missions. These include communications satellites like Starlink; space stations such as the ISS; scientific satellites like the Hubble; Earth observation satellites from companies like Planet Labs, Umbra, and HawkEye 360; GPS; miniature CubeSats for education and research; and military/defense satellites.

Loading next visibility...
Identifier
45160, 2020-008AF
Orbit
LEO
Country
Flag of UKUK
Related business
Manufacturer
One Web
Mission
Operational Commercial Communications
Bus & Motor
ARROW, Unknown motor
Mass
148 kg wet, ~140 kg dry
Launch date (UTC)
2020-02-06 (6 years ago)
Launch vehicle
SOYUZ-2-1B
Launch site
Tyuratam Missile And Space Complex (TTMTR)
Object type
Payload
Rocket body
Debris
Shape & HBR
Trap Box + 2 Pan, 6.7 m
Radar Cross Section
3.464 m², Large (>1 m²)

Expand to show TLE details & history
Last TLE update: 7 hours ago

TLE from 7 hours ago
0 ONEWEB-0057
1 45160U 20008AF  26035.13284195  .00000672  00000-0  18872-2 0  9998
2 45160  87.8752  62.7861 0001955  86.9425 273.1926 13.10374845290927
Epoch: 2026-02-04T03:11Z
TLE epoch observation values (Epoch: 2026-02-04T03:11:17.544Z)
Latitude
-0.00002°
Longitude
-119.34081°
Altitude
1,224.514 km
Speed
7.242 km/s
True Right ascension
04h 11m 08s
True Declination
0° 00' 00"
Sunlit
Object was in daylight at epoch
Visualization orbit readout
Latitude
Unknown
Longitude
Unknown
Altitude
Unknown
Speed
Unknown
Apparent Right ascension
Unknown
Apparent Declination
Unknown
Sunlit
N/A
Visualization observer readout
Local Sidereal Time
11:46:12
Azimuth
Unknown
Elevation
Unknown
Doppler factor
Unknown
Orbital elements
Apogee altitude
1,220.314 km
Perigee altitude
1,217.344 km
Semi-major axis
7,596.966 km
Eccentricity
0.0002
Inclination
87.8752°
RAAN
62.7861°
Arg. of periapsis
86.9425°
True anomaly
273.17023°
Mean anomaly
273.1926°
Eccentric anomaly
273.18142°
Mean motion
3.2778 °/min
Orbital period
109.83 mins
BSTAR
0.0018872
Loading maneuver chart data...
Computing Atmospheric mass density...
Loading historical data...
Loading historical data...
Loading historical data...
Loading historical data...
Loading historical data...
Loading historical data...
Loading historical data...

Documentation

Showing up to 5 results
|